BAW72S EGCC-EGPH

Flight info

Callsign BAW72S
Flight time N/A
Altitude 22000
Route POL N601 INPIP
Aircraft A320/M-SDE3FGHIRWY/LB1

Departure

Time N/A
Airport Manchester Airport (EGCC)

Arrival

Time 2026-04-22 08:32
Airport Edinburgh Airport (EGPH)
Time Latitude Longitude Altitude Speed Heading
2026-04-22 08:21 55.71527 -3.36235 6837 ft 270 kts 294°
2026-04-22 08:21 55.72279 -3.39254 6708 ft 268 kts 294°
2026-04-22 08:21 55.73028 -3.42275 6572 ft 267 kts 294°
2026-04-22 08:21 55.73770 -3.45269 6441 ft 261 kts 294°
2026-04-22 08:22 55.74491 -3.48175 6310 ft 253 kts 294°
2026-04-22 08:22 55.75192 -3.50989 6178 ft 245 kts 294°
2026-04-22 08:22 55.75865 -3.53703 6088 ft 234 kts 294°
2026-04-22 08:22 55.76493 -3.56233 5937 ft 220 kts 294°
2026-04-22 08:23 55.77096 -3.58669 5656 ft 213 kts 294°
2026-04-22 08:23 55.77681 -3.61036 5454 ft 204 kts 294°
2026-04-22 08:23 55.78219 -3.63209 5402 ft 183 kts 294°
2026-04-22 08:23 55.78710 -3.65188 5332 ft 170 kts 294°
2026-04-22 08:24 55.79172 -3.67055 5273 ft 163 kts 293°
2026-04-22 08:24 55.79660 -3.68855 5179 ft 162 kts 306°
2026-04-22 08:24 55.80447 -3.70251 4945 ft 159 kts 331°
2026-04-22 08:24 55.81441 -3.70968 4587 ft 149 kts 357°
2026-04-22 08:25 55.82442 -3.70954 4461 ft 141 kts 19°
2026-04-22 08:25 55.83325 -3.70353 4330 ft 135 kts 38°
2026-04-22 08:25 55.84012 -3.69311 4186 ft 129 kts 56°
2026-04-22 08:25 55.84504 -3.67972 4039 ft 130 kts 63°
2026-04-22 08:26 55.84976 -3.66601 3874 ft 130 kts 62°
2026-04-22 08:26 55.85450 -3.65226 3696 ft 130 kts 62°
2026-04-22 08:26 55.85922 -3.63852 3509 ft 130 kts 62°
2026-04-22 08:26 55.86391 -3.62484 3332 ft 129 kts 62°
2026-04-22 08:27 55.86858 -3.61125 3150 ft 128 kts 61°
2026-04-22 08:27 55.87320 -3.59775 2977 ft 128 kts 62°
2026-04-22 08:27 55.87781 -3.58428 2796 ft 127 kts 61°
2026-04-22 08:27 55.88230 -3.57117 2618 ft 127 kts 61°
2026-04-22 08:28 55.88696 -3.55753 2447 ft 127 kts 61°
2026-04-22 08:28 55.89153 -3.54418 2265 ft 127 kts 61°
2026-04-22 08:28 55.89611 -3.53077 2086 ft 126 kts 61°
2026-04-22 08:28 55.90067 -3.51741 1905 ft 126 kts 61°
2026-04-22 08:29 55.90519 -3.50417 1730 ft 125 kts 61°
2026-04-22 08:29 55.90975 -3.49081 1548 ft 126 kts 60°
2026-04-22 08:29 55.91424 -3.47763 1370 ft 127 kts 60°
2026-04-22 08:29 55.91886 -3.46407 1189 ft 126 kts 60°
2026-04-22 08:30 55.92340 -3.45072 992 ft 126 kts 61°
2026-04-22 08:30 55.92784 -3.43768 833 ft 126 kts 60°
2026-04-22 08:30 55.93241 -3.42428 644 ft 125 kts 61°
2026-04-22 08:30 55.93697 -3.41083 465 ft 126 kts 61°
2026-04-22 08:31 55.94135 -3.39795 306 ft 126 kts 61°
2026-04-22 08:31 55.94258 -3.39432 254 ft 125 kts 60°
2026-04-22 08:31 55.95103 -3.36929 128 ft 97 kts 67°
2026-04-22 08:32 55.95390 -3.36079 111 ft 57 kts 53°
2026-04-22 08:32 55.95522 -3.35679 112 ft 13 kts 60°
2026-04-22 08:32 55.95546 -3.35511 113 ft 16 kts 110°
2026-04-22 08:32 55.95495 -3.35436 113 ft 6 kts 155°
2026-04-22 08:33 55.95445 -3.35406 116 ft 9 kts 186°
2026-04-22 08:33 55.95399 -3.35501 113 ft 12 kts 240°
2026-04-22 08:33 55.95350 -3.35647 115 ft 15 kts 238°
2026-04-22 08:33 55.95284 -3.35836 115 ft 26 kts 238°
2026-04-22 08:34 55.95130 -3.36288 114 ft 47 kts 240°
2026-04-22 08:34 55.95062 -3.36406 115 ft 4 kts 136°
2026-04-22 08:34 55.95023 -3.36393 115 ft 8 kts 192°
2026-04-22 08:34 55.94984 -3.36486 112 ft 20 kts 238°
2026-04-22 08:35 55.94876 -3.36799 112 ft 0 kts 247°
2026-04-22 08:35 55.94871 -3.36799 113 ft 3 kts 194°
2026-04-22 08:35 55.94806 -3.36769 116 ft 12 kts 167°
2026-04-22 08:35 55.94751 -3.36658 114 ft 7 kts 104°
2026-04-22 08:36 55.94751 -3.36596 116 ft 0 kts 92°